Mitchell, SD

6:08 AM CDT on March 28, 2017 (GMT -0500)
Mitchell Municipal

Weather History for KMHE - November, 2012

Change the Weather History Date:

Thursday, November 8, 2012

  Actual Average Record
Temperature  
Mean Temperature 46 °F 39 °F  
Max Temperature 58 °F 49 °F 81 °F (1999)
Min Temperature 34 °F 28 °F -9 °F (1991)
Degree Days  
Heating Degree Days 19 26  
Month to date heating degree days 195 195  
Since 1 July heating degree days 863 836  
Cooling Degree Days 0 0  
Month to date cooling degree days 0 0  
Year to date cooling degree days 1236 824  
Moisture  
Dew Point 33 °F    
Average Humidity 64    
Maximum Humidity 85    
Minimum Humidity 43    
Precipitation  
Precipitation 0.00 in 0.03 in 1.25 in (1983)
Month to date precipitation 0.08 0.32  
Year to date precipitation 21.16 20.61  
Snow  
Snow 0.00 in - 1.50 in (1983)
Month to date snowfall T  
Since 1 July snowfall 0.7  
Since 1 September snowfall 0.7  
Snow Depth 0.00 in    
Sea Level Pressure  
Sea Level Pressure 29.93 in    
Wind  
Wind Speed 13 mph (NE)    
Max Wind Speed 25 mph    
Max Gust Speed 31 mph    
Visibility 10 miles    
Events      
T = Trace of Precipitation, MM = Missing Value Source: NWS Daily Summary

Daily Weather History Graph

Daily Weather History Graph

Search for Another Location

Airport or City:

Trip Planner

Search our weather history database for the weather conditions in past years. The results will help you decide how hot, cold, wet, or windy it might be!

Date:

Astronomy

Nov. 08, 2012 Rise Set
Actual Time 7:18 AM CST 5:13 PM CST
Civil Twilight 6:47 AM CST 5:43 PM CST
Nautical Twilight 6:13 AM CST 6:18 PM CST
Astronomical Twilight 5:39 AM CST 6:51 PM CST
Moon 1:03 AM CST (11/8) 2:05 PM CST (11/8)
Length of Visible Light 10h 56m
Length of Day
9h 55m
Waning Crescent, 32% of the Moon is Illuminated
Nov 8
Waning Crescent
Nov 13
New
Nov 20
First Quarter
Nov 28
Full
Dec 6
Last Quarter

Hourly Weather History & Observations

Time (CST) Temp. Windchill Dew Point Humidity Pressure Visibility Wind Dir Wind Speed Gust Speed Precip Events Conditions
12:53 AM 42.1 °F 34.9 °F 30.9 °F 65% 29.83 in 10.0 mi SSE 13.8 mph - N/A   Clear
1:53 AM 42.1 °F 34.5 °F 30.9 °F 65% 29.82 in 10.0 mi SSE 15.0 mph - N/A   Clear
2:53 AM 42.1 °F 34.2 °F 30.0 °F 62% 29.80 in 10.0 mi SSE 16.1 mph - N/A   Clear
3:53 AM 41.0 °F 32.8 °F 30.0 °F 65% 29.78 in 10.0 mi SSE 16.1 mph - N/A   Clear
4:53 AM 39.9 °F 33.4 °F 30.0 °F 68% 29.80 in 10.0 mi SSE 10.4 mph - N/A   Clear
5:53 AM 37.9 °F 31.5 °F 28.9 °F 70% 29.83 in 10.0 mi SE 9.2 mph - N/A   Clear
6:53 AM 35.1 °F 31.0 °F 28.0 °F 76% 29.83 in 10.0 mi SSE 4.6 mph - N/A   Clear
7:53 AM 35.1 °F - 28.9 °F 78% 29.87 in 10.0 mi Calm Calm - N/A   Clear
8:53 AM 39.9 °F 37.8 °F 30.9 °F 70% 29.90 in 10.0 mi NNW 3.5 mph - N/A   Clear
9:53 AM 44.1 °F 38.6 °F 32.0 °F 63% 29.92 in 10.0 mi NNW 10.4 mph - N/A   Clear
10:53 AM 48.9 °F - 32.0 °F 52% 29.94 in 10.0 mi North 15.0 mph - N/A   Clear
11:53 AM 52.0 °F - 33.1 °F 49% 29.94 in 10.0 mi North - - N/A   Clear
12:53 PM 55.0 °F - 34.0 °F 45% 29.94 in 10.0 mi North - - N/A   Clear
1:53 PM 57.9 °F - 37.0 °F 46% 29.92 in 10.0 mi North - - N/A   Clear
2:53 PM 55.9 °F - 37.9 °F 51% 29.94 in 10.0 mi North 20.7 mph - N/A   Clear
3:53 PM 52.0 °F - 37.0 °F 57% 29.96 in 10.0 mi North 21.9 mph 27.6 mph N/A   Clear
4:53 PM 46.0 °F 38.3 °F 35.1 °F 66% 29.98 in 10.0 mi North 20.7 mph 28.8 mph N/A   Clear
5:53 PM 42.1 °F 33.9 °F 34.0 °F 73% 30.01 in 10.0 mi North 17.3 mph 25.3 mph N/A   Clear
6:53 PM 39.0 °F 30.3 °F 34.0 °F 82% 30.02 in 10.0 mi North 16.1 mph - N/A   Clear
7:53 PM 37.9 °F 30.9 °F 33.1 °F 83% 30.04 in 10.0 mi NNE 10.4 mph - N/A   Partly Cloudy
8:24 PM 39.2 °F 30.5 °F 33.8 °F 81% 30.00 in 10.0 mi NE 16.1 mph - N/A   Overcast
8:53 PM 39.9 °F 31.8 °F 35.1 °F 83% 30.03 in 10.0 mi NNE 15.0 mph - N/A   Overcast
9:53 PM 39.9 °F 31.4 °F 34.0 °F 79% 30.04 in 10.0 mi NE 16.1 mph - N/A   Overcast
10:53 PM 39.9 °F 32.5 °F 34.0 °F 79% 30.02 in 9.0 mi NE 12.7 mph - N/A   Overcast
11:53 PM 39.9 °F 34.5 °F 34.0 °F 79% 30.01 in 10.0 mi NE 8.1 mph - N/A   Overcast